User: anonymous   Login
Location: Unspecified
(0.0000°N, 0.0000°E)
Time: 21:47:20
(UTC+01:00)
Language:

Cosmos 2263 Rocket - Orbit

View from above orbital plane
View from above orbital plane
View from above satellite
View from above satellite

Ground track
Ground track

The orbit data is extracted from the following two-line orbital elements,

1 22803U 93059B   14329.47414516 -.00000190  00000-0 -71013-4 0  4287
2 22803 070.9917 058.9822 0017388 001.0514 359.0642 14.16686588 95895
Epoch (UTC): 25 November 2014 11:22:46
Eccentricity: 0.0017388
inclination: 70.9917°
perigee height: 824 km
apogee height: 849 km
right ascension of ascending node: 58.9822°
argument of perigee: 1.0514°
revolutions per day: 14.16686588
mean anomaly at epoch: 359.0642°
orbit number at epoch: 9589

The dashed part of the orbit path shows where the satellite is in the earth's shadow,  

DLR